ABS-2

Last updated on Tue Sep 22 2026 00:03:13 GMT+0000 (Coordinated Universal Time)

1 39508U 14006A 26264.57521773 .00000000 00000+0 00000+0 0 9991 2 39508 0.0232 160.1707 0003511 18.6208 103.6733 1.00269528 46243
UTC large
Height (km)
Speed (km/s)
/
Latitude / Longitude
Inclination (degrees)
Orbital Period (minutes)
Azimuth
Elevation
Range (km)
Doppler Factor

Next 0 passes for location: London (51.5072 / 0.1276)

No passes found over London.
ABS-2